FW9176 Weather Reports


Display with metric or nautical units.
time (UTC)temp
F
wind
direction
speed
MPH
gust
MPH
rain 1hr
in
rain 24hr
in
rain mn
in
humidity
%
barometer
mb
20260904083104 79 0 0.0 0.0 0.00 0.00 0.00 79 1010.7
20260904081609 79 0 0.0 0.0 0.00 0.00 0.00 78 1010.6
20260904074559 80 0 0.0 3.0 0.00 0.00 0.00 78 1010.1
20260904073126 80 141 0.0 3.0 0.00 0.00 0.00 78 1009.8
20260904071604 80 0 0.0 3.0 0.00 0.00 0.00 78 1009.8
20260904064605 80 0 0.0 3.0 0.00 0.00 0.00 79 1010.3
20260904063109 80 0 0.0 0.0 0.00 0.00 0.00 79 1010.8
20260904061557 80 0 0.0 0.0 0.00 0.00 0.00 79 1011.2
20260904060129 80 0 0.0 1.0 0.00 0.00 0.00 78 1011.3
20260904054628 81 0 0.0 0.0 0.00 0.00 0.00 78 1011.4
20260904053104 81 0 0.0 2.0 0.00 0.00 0.00 78 1011.4
20260904051601 81 170 0.0 2.0 0.00 0.00 0.00 77 1011.2
20260904050059 82 164 0.0 1.0 0.00 0.00 0.00 77 1011.0
20260904044604 82 0 0.0 1.0 0.00 0.00 0.00 77 1011.0
20260904043105 82 0 0.0 0.0 0.00 0.00 0.00 77 1011.2
20260904041608 82 0 0.0 1.0 0.00 0.00 0.00 76 1011.3
20260904034558 83 0 0.0 0.0 0.00 0.00 0.00 76 1011.3
20260904033101 83 0 0.0 2.0 0.00 0.00 0.00 76 1011.3
20260904031605 83 0 0.0 0.0 0.00 0.00 0.00 75 1011.4
20260904030103 83 0 0.0 1.0 0.00 0.00 0.00 75 1011.3
20260904024604 83 0 0.0 1.0 0.00 0.00 0.00 74 1011.3
20260904023102 83 0 0.0 0.0 0.00 0.00 0.00 75 1011.4
20260904021555 83 0 0.0 0.0 0.00 0.00 0.00 74 1011.3
20260904020105 83 0 0.0 0.0 0.00 0.00 0.00 74 1011.1
20260904014620 83 0 0.0 0.0 0.00 0.00 0.00 73 1011.1
20260904013121 84 0 0.0 1.0 0.00 0.00 0.00 72 1011.0
20260904011603 84 0 0.0 1.0 0.00 0.00 0.00 72 1010.7
20260904010115 84 0 0.0 1.0 0.00 0.00 0.00 71 1010.2
20260904004618 84 0 0.0 1.0 0.00 0.00 0.00 70 1010.1
20260904003121 84 0 0.0 1.0 0.00 0.00 0.00 69 1010.0
20260904001601 85 0 0.0 1.0 0.00 0.00 0.00 69 1010.2
20260904000101 85 0 0.0 1.0 0.00 0.00 0.00 68 1010.3
20260903234601 86 0 0.0 1.0 0.00 0.00 0.00 67 1010.5
20260903233104 86 0 0.0 1.0 0.00 0.00 0.00 67 1010.5
20260903231606 86 79 0.0 1.0 0.00 0.00 0.00 66 1010.6
20260903230103 86 0 0.0 2.0 0.00 0.00 0.00 65 1010.7
20260903224557 87 0 0.0 2.0 0.00 0.00 0.00 64 1010.5
20260903223114 88 68 1.0 2.0 0.00 0.00 0.00 63 1010.4
20260903221559 89 73 0.0 2.0 0.00 0.00 0.00 59 1010.6
20260903220101 91 0 0.0 1.0 0.00 0.00 0.00 59 1010.7
20260903214606 91 188 1.0 4.0 0.00 0.00 0.00 62 1010.5
20260903213105 91 165 0.0 4.0 0.00 0.00 0.00 61 1010.6
20260903211612 91 0 0.0 4.0 0.00 0.00 0.00 61 1010.8
20260903210107 91 0 0.0 3.0 0.00 0.00 0.00 61 1010.8
20260903204559 91 0 2.0 5.0 0.00 0.00 0.00 62 1010.9
20260903203101 91 196 1.0 4.0 0.00 0.00 0.00 62 1011.0
20260903201606 90 179 1.0 4.0 0.00 0.00 0.00 60 1011.1
20260903194600 89 92 0.0 3.0 0.00 0.00 0.00 60 1011.3
20260903193108 88 172 0.0 2.0 0.00 0.00 0.00 61 1011.5
20260903191558 88 0 0.0 1.0 0.00 0.00 0.00 62 1011.9
20260903190111 87 0 0.0 1.0 0.00 0.00 0.00 64 1012.0
20260903184606 87 0 0.0 2.0 0.00 0.00 0.00 66 1012.1
20260903183107 86 0 0.0 2.0 0.00 0.00 0.00 68 1012.3
20260903181558 85 60 0.0 3.0 0.00 0.00 0.00 70 1012.7
20260903180110 85 35 0.0 3.0 0.00 0.00 0.00 71 1012.8
20260903174611 85 359 0.0 4.0 0.00 0.00 0.00 70 1013.1
20260903173107 85 105 1.0 6.0 0.00 0.00 0.00 70 1013.2
20260903171606 86 276 1.0 5.0 0.00 0.00 0.00 69 1013.2
20260903164609 85 294 2.0 7.0 0.00 0.00 0.00 69 1012.9
20260903163104 85 297 1.0 6.0 0.00 0.00 0.00 68 1013.0
20260903161605 88 342 2.0 6.0 0.00 0.00 0.00 66 1012.8
20260903160111 90 0 0.0 2.0 0.00 0.00 0.00 62 1011.8
20260903154600 90 0 0.0 2.0 0.00 0.00 0.00 63 1011.7
20260903153110 88 290 0.0 2.0 0.00 0.00 0.00 64 1011.7
20260903151558 88 271 0.0 3.0 0.00 0.00 0.00 65 1011.7
20260903150058 87 281 0.0 3.0 0.00 0.00 0.00 66 1011.8
20260903144606 87 0 0.0 6.0 0.00 0.00 0.00 66 1011.9
20260903143107 86 296 0.0 3.0 0.00 0.00 0.00 67 1011.7
20260903141601 85 282 0.0 2.0 0.00 0.00 0.00 67 1011.7
20260903140100 84 0 0.0 2.0 0.00 0.00 0.00 68 1011.5
20260903134611 83 0 0.0 3.0 0.00 0.00 0.00 68 1011.6
20260903133111 82 158 0.0 2.0 0.00 0.00 0.00 69 1011.7
20260903131601 82 0 0.0 1.0 0.00 0.00 0.00 71 1011.6
20260903130129 81 0 0.0 2.0 0.00 0.00 0.00 72 1011.6
20260903124624 80 0 0.0 2.0 0.00 0.00 0.00 73 1011.6
20260903123101 80 0 0.0 2.0 0.00 0.00 0.00 73 1011.7
20260903121556 80 0 0.0 1.0 0.00 0.00 0.00 73 1011.7
20260903114600 80 0 0.0 3.0 0.00 0.00 0.00 72 1011.6
20260903113056 80 0 0.0 2.0 0.00 0.00 0.00 72 1011.5
20260903111602 80 0 0.0 1.0 0.00 0.00 0.00 72 1011.4
20260903104604 80 0 0.0 1.0 0.00 0.00 0.00 74 1011.3
20260903103059 79 139 0.0 2.0 0.00 0.00 0.00 75 1011.2
20260903101602 79 0 0.0 4.0 0.00 0.00 0.00 76 1011.2
20260903100100 79 0 0.0 1.0 0.00 0.00 0.00 77 1011.3
20260903094609 79 141 0.0 1.0 0.00 0.00 0.00 78 1011.2
20260903093059 79 0 0.0 1.0 0.00 0.00 0.00 79 1011.0
20260903091600 79 0 0.0 1.0 0.00 0.00 0.00 79 1011.1
20260903090107 79 0 0.0 2.0 0.00 0.00 0.00 79 1011.1
20260903084603 79 0 0.0 1.0 0.00 0.00 0.00 79 1011.0